Weather History for KPPF - November, 2012

Change the Weather History Date:

Wednesday, November 14, 2012

  Actual Average Record
Temperature  
Mean Temperature 42 °F -  
Max Temperature 57 °F 56 °F 79 °F (1964)
Min Temperature 26 °F 35 °F 9 °F (1986)
Degree Days  
Heating Degree Days 24    
Moisture  
Dew Point 26 °F    
Average Humidity 59    
Maximum Humidity 88    
Minimum Humidity 30    
Precipitation  
Precipitation 0.00 in - - ()
Sea Level Pressure  
Sea Level Pressure 30.37 in    
Wind  
Wind Speed 2 mph (South)    
Max Wind Speed 10 mph    
Max Gust Speed 16 mph    
Visibility 10 miles    
Events      
Averages and records for this station are not official NWS values.
T = Trace of Precipitation, MM = Missing Value Source: NWS Daily Summary

Daily Weather History Graph

Daily Weather History Graph

Search for Another Location

Airport or City:

Trip Planner

Search our weather history database for the weather conditions in past years. The results will help you decide how hot, cold, wet, or windy it might be!

Date:

Astronomy

Nov. 14, 2012 Rise Set
Actual Time 7:00 AM CST 5:11 PM CST
Civil Twilight 6:32 AM CST 5:39 PM CST
Nautical Twilight 6:01 AM CST 6:11 PM CST
Astronomical Twilight 5:30 AM CST 6:42 PM CST
Moon 7:50 AM CST (11/14) 6:02 PM CST (11/14)
Length of Visible Light 11h 06m
Length of Day
10h 11m
New Moon, 1% of the Moon is Illuminated
Nov 14
New Moon
Nov 20
First Quarter
Nov 28
Full
Dec 6
Last Quarter
Dec 13
New

Hourly Weather History & Observations

Time (CST) Temp. Windchill Dew Point Humidity Pressure Visibility Wind Dir Wind Speed Gust Speed Precip Events Conditions
12:52 AM 30.9 °F - 26.1 °F 82% 30.39 in 10.0 mi Calm Calm - N/A   Clear
1:52 AM 28.9 °F - 25.0 °F 85% 30.40 in 10.0 mi Calm Calm - N/A   Clear
2:52 AM 30.0 °F - 24.1 °F 79% 30.40 in 10.0 mi Calm Calm - N/A   Clear
3:52 AM 28.0 °F - 24.1 °F 85% 30.40 in 10.0 mi Calm Calm - N/A   Clear
4:52 AM 28.0 °F - 24.1 °F 85% 30.40 in 10.0 mi Calm Calm - N/A   Clear
5:52 AM 26.1 °F - 23.0 °F 88% 30.42 in 10.0 mi Calm Calm - N/A   Clear
6:52 AM 26.1 °F - 21.9 °F 84% 30.43 in 10.0 mi Calm Calm - N/A   Clear
7:52 AM 30.9 °F - 27.0 °F 85% 30.43 in 10.0 mi Calm Calm - N/A   Clear
8:52 AM 42.1 °F 39.2 °F 28.9 °F 60% 30.44 in 10.0 mi SSE 4.6 mph - N/A   Clear
9:52 AM 48.0 °F - 30.0 °F 50% 30.43 in 10.0 mi Variable 6.9 mph - N/A   Clear
10:52 AM 52.0 °F - 28.9 °F 41% 30.42 in 10.0 mi South 6.9 mph - N/A   Clear
11:52 AM 55.0 °F - 28.0 °F 35% 30.39 in 10.0 mi SSW 8.1 mph - N/A   Clear
12:52 PM 57.0 °F - 27.0 °F 32% 30.36 in 10.0 mi South 8.1 mph - N/A   Clear
1:52 PM 57.9 °F - 27.0 °F 31% 30.35 in 10.0 mi SSW 10.4 mph - N/A   Clear
2:52 PM 57.9 °F - 26.1 °F 30% 30.32 in 10.0 mi South 5.8 mph 16.1 mph N/A   Clear
3:52 PM 57.0 °F - 26.1 °F 30% 30.32 in 10.0 mi South 6.9 mph 16.1 mph N/A   Clear
4:52 PM 53.1 °F - 26.1 °F 35% 30.30 in 10.0 mi Calm Calm - N/A   Clear
5:52 PM 43.0 °F - 27.0 °F 53% 30.31 in 10.0 mi Calm Calm - N/A   Clear
6:52 PM 37.9 °F - 28.0 °F 68% 30.32 in 10.0 mi Calm Calm - N/A   Clear
7:52 PM 44.1 °F - 27.0 °F 51% 30.31 in 10.0 mi Calm Calm - N/A   Clear
8:52 PM 43.0 °F 41.3 °F 27.0 °F 53% 30.31 in 10.0 mi SE 3.5 mph - N/A   Clear
9:52 PM 41.0 °F 39.0 °F 28.0 °F 60% 30.30 in 10.0 mi SE 3.5 mph - N/A   Clear
10:52 PM 41.0 °F 39.0 °F 28.0 °F 60% 30.29 in 10.0 mi SSE 3.5 mph - N/A   Clear